Total_Precipitation_Accumulation
0.59 0.74 0.85 0.80 0.82 0.87 0.78 0.74 0.72 0.60 0.49 0.54 0.56 0.57 0.51 0.48 0.43 0.43 0.45 0.44 0.46 0.40 0.36 0.28 0.26 0.28 0.36 0.41 0.45 0.51 0.58 0.56 0.51 0.49 0.57 0.65 0.68 0.79 0.90 0.97 1.04 1.04 1.07 1.17
0.58 0.61 0.55 0.58 0.64 0.76 0.78 0.80 0.77 0.68 0.51 0.51 0.55 0.60 0.51 0.46 0.43 0.37 0.34 0.31 0.36 0.35 0.34 0.29 0.28 0.27 0.28 0.32 0.36 0.44 0.47 0.45 0.41 0.39 0.46 0.56 0.65 0.75 0.95 1.14 1.35 1.28 1.19 1.24
0.56 0.51 0.43 0.47 0.54 0.68 0.71 0.67 0.61 0.69 0.62 0.59 0.67 0.75 0.62 0.53 0.48 0.39 0.31 0.31 0.34 0.32 0.28 0.28 0.29 0.31 0.27 0.28 0.34 0.41 0.43 0.43 0.41 0.47 0.66 0.95 1.23 1.36 1.43 1.48 1.72 1.75 1.62 1.57
0.71 0.49 0.40 0.43 0.48 0.55 0.75 0.55 0.48 0.60 0.77 0.75 0.65 0.81 0.59 0.52 0.57 0.44 0.36 0.32 0.32 0.32 0.30 0.28 0.28 0.32 0.26 0.28 0.34 0.40 0.43 0.50 0.51 0.65 0.97 1.40 1.74 1.87 1.85 1.92 2.00 2.10 2.02 1.86
0.58 0.41 0.39 0.43 0.41 0.48 0.73 0.60 0.60 0.65 0.71 0.68 0.47 0.55 0.48 0.48 0.57 0.46 0.42 0.41 0.41 0.36 0.33 0.32 0.32 0.34 0.32 0.35 0.42 0.49 0.58 0.73 0.88 0.99 1.17 1.49 1.67 1.76 1.88 2.04 2.28 2.45 2.50 2.43
0.43 0.34 0.36 0.37 0.36 0.42 0.55 0.67 0.79 0.79 0.78 0.75 0.39 0.38 0.44 0.44 0.43 0.42 0.42 0.44 0.43 0.37 0.32 0.33 0.39 0.43 0.43 0.50 0.58 0.63 0.80 0.95 0.98 1.08 1.19 1.32 1.41 1.56 1.77 1.96 2.22 2.39 2.43 2.43
0.47 0.41 0.33 0.31 0.44 0.48 0.53 0.77 1.09 1.18 1.09 0.77 0.33 0.33 0.40 0.32 0.28 0.32 0.35 0.33 0.32 0.34 0.34 0.36 0.38 0.45 0.49 0.56 0.63 0.73 0.87 1.03 1.05 1.12 1.21 1.24 1.29 1.42 1.59 1.71 1.77 1.82 1.81 1.83
0.44 0.45 0.31 0.26 0.32 0.41 0.44 0.55 0.91 1.10 0.91 0.63 0.37 0.43 0.41 0.27 0.22 0.19 0.23 0.27 0.30 0.39 0.42 0.43 0.43 0.53 0.62 0.69 0.79 0.90 0.99 1.06 1.11 1.18 1.24 1.23 1.31 1.42 1.53 1.50 1.47 1.54 1.57 1.62
0.37 0.35 0.22 0.22 0.23 0.27 0.42 0.43 0.50 0.64 0.52 0.53 0.42 0.38 0.29 0.19 0.17 0.17 0.22 0.33 0.41 0.48 0.51 0.54 0.56 0.63 0.73 0.81 0.89 0.97 1.08 1.15 1.21 1.21 1.27 1.41 1.45 1.44 1.42 1.32 1.29 1.35 1.31 1.28
0.28 0.35 0.27 0.24 0.26 0.28 0.34 0.43 0.53 0.63 0.70 0.66 0.44 0.39 0.36 0.24 0.23 0.26 0.32 0.41 0.55 0.66 0.68 0.71 0.76 0.81 0.86 0.89 0.98 1.06 1.16 1.29 1.27 1.26 1.34 1.52 1.48 1.24 1.08 0.99 1.03 1.09 1.15 1.19
0.21 0.33 0.37 0.30 0.27 0.29 0.35 0.34 0.43 0.53 0.55 0.76 0.87 0.82 0.65 0.60 0.49 0.53 0.58 0.66 0.84 0.90 0.91 0.89 0.94 0.99 0.97 0.99 1.08 1.10 1.17 1.34 1.36 1.26 1.34 1.34 1.15 0.90 0.81 0.81 0.80 0.80 0.83 0.88
0.18 0.31 0.36 0.27 0.18 0.18 0.28 0.28 0.31 0.53 0.55 0.60 0.93 0.96 0.81 0.84 0.81 0.91 1.00 1.16 1.12 1.10 1.13 1.03 0.98 0.99 0.91 0.90 1.00 1.07 1.18 1.26 1.19 1.15 1.13 0.96 0.77 0.66 0.63 0.60 0.57 0.56 0.58 0.59
0.25 0.35 0.45 0.42 0.35 0.24 0.23 0.19 0.21 0.32 0.51 0.61 0.94 0.98 0.74 0.83 0.94 1.10 1.21 1.23 1.05 0.92 0.86 0.82 0.81 0.75 0.71 0.73 0.78 0.82 0.96 1.03 0.84 0.76 0.79 0.74 0.63 0.58 0.54 0.50 0.49 0.47 0.50 0.51
0.28 0.32 0.40 0.45 0.37 0.23 0.20 0.16 0.17 0.27 0.49 0.53 0.65 0.71 0.65 0.77 0.93 1.03 1.07 0.97 0.76 0.65 0.61 0.57 0.50 0.46 0.51 0.52 0.52 0.49 0.53 0.64 0.58 0.53 0.57 0.57 0.55 0.53 0.53 0.53 0.52 0.48 0.47 0.48
0.30 0.30 0.25 0.23 0.17 0.15 0.15 0.15 0.16 0.20 0.27 0.44 0.50 0.50 0.51 0.56 0.59 0.61 0.64 0.63 0.54 0.49 0.41 0.38 0.38 0.36 0.41 0.42 0.41 0.39 0.36 0.39 0.42 0.41 0.43 0.50 0.53 0.54 0.51 0.52 0.50 0.48 0.46 0.43
0.29 0.28 0.19 0.17 0.14 0.13 0.11 0.10 0.13 0.16 0.21 0.30 0.32 0.32 0.30 0.28 0.25 0.24 0.26 0.32 0.30 0.28 0.25 0.27 0.30 0.33 0.37 0.36 0.34 0.34 0.32 0.31 0.31 0.32 0.32 0.40 0.48 0.50 0.52 0.50 0.47 0.43 0.44 0.43
0.31 0.30 0.27 0.18 0.13 0.17 0.15 0.09 0.11 0.15 0.15 0.19 0.24 0.27 0.28 0.22 0.17 0.15 0.14 0.15 0.17 0.19 0.21 0.23 0.26 0.32 0.37 0.35 0.35 0.35 0.33 0.29 0.29 0.30 0.33 0.38 0.40 0.39 0.44 0.46 0.41 0.36 0.39 0.41
0.25 0.31 0.38 0.29 0.26 0.29 0.15 0.07 0.07 0.09 0.10 0.14 0.17 0.18 0.21 0.18 0.18 0.15 0.13 0.13 0.14 0.15 0.17 0.20 0.23 0.28 0.35 0.36 0.37 0.37 0.36 0.34 0.31 0.31 0.32 0.36 0.37 0.37 0.35 0.38 0.36 0.34 0.36 0.38
0.21 0.32 0.47 0.42 0.35 0.19 0.10 0.09 0.08 0.08 0.10 0.12 0.11 0.10 0.10 0.11 0.15 0.13 0.11 0.10 0.10 0.11 0.13 0.16 0.20 0.29 0.35 0.38 0.41 0.43 0.38 0.36 0.35 0.33 0.31 0.32 0.34 0.36 0.36 0.31 0.31 0.33 0.37 0.38
0.26 0.31 0.49 0.50 0.46 0.28 0.13 0.07 0.07 0.10 0.15 0.14 0.12 0.10 0.10 0.12 0.16 0.14 0.11 0.09 0.09 0.10 0.11 0.14 0.17 0.25 0.32 0.38 0.41 0.43 0.44 0.37 0.33 0.33 0.33 0.33 0.32 0.30 0.33 0.32 0.32 0.33 0.37 0.41
0.36 0.40 0.45 0.44 0.43 0.23 0.10 0.08 0.10 0.20 0.21 0.15 0.13 0.11 0.12 0.13 0.13 0.12 0.09 0.07 0.09 0.09 0.10 0.12 0.16 0.24 0.29 0.36 0.39 0.44 0.45 0.35 0.32 0.37 0.41 0.40 0.36 0.34 0.39 0.41 0.39 0.38 0.38 0.41
0.43 0.46 0.43 0.42 0.46 0.29 0.11 0.13 0.20 0.22 0.15 0.11 0.11 0.11 0.11 0.11 0.11 0.09 0.09 0.08 0.09 0.10 0.11 0.12 0.15 0.21 0.25 0.32 0.38 0.42 0.44 0.41 0.40 0.40 0.42 0.42 0.42 0.42 0.45 0.49 0.49 0.49 0.47 0.46
0.41 0.44 0.45 0.38 0.30 0.19 0.14 0.17 0.19 0.17 0.16 0.12 0.11 0.11 0.10 0.10 0.10 0.09 0.10 0.09 0.10 0.10 0.11 0.14 0.17 0.20 0.23 0.30 0.33 0.38 0.42 0.46 0.45 0.43 0.43 0.44 0.46 0.47 0.46 0.47 0.51 0.53 0.51 0.48
0.36 0.35 0.42 0.37 0.23 0.19 0.19 0.18 0.19 0.18 0.14 0.11 0.10 0.10 0.11 0.10 0.11 0.10 0.10 0.09 0.10 0.12 0.13 0.15 0.19 0.22 0.24 0.31 0.36 0.46 0.48 0.45 0.48 0.49 0.49 0.47 0.46 0.46 0.46 0.46 0.46 0.46 0.47 0.46
0.44 0.47 0.47 0.41 0.30 0.26 0.25 0.22 0.21 0.19 0.13 0.10 0.08 0.08 0.10 0.10 0.10 0.12 0.12 0.10 0.10 0.12 0.13 0.16 0.21 0.24 0.25 0.31 0.36 0.46 0.46 0.46 0.49 0.53 0.53 0.50 0.46 0.43 0.43 0.43 0.44 0.45 0.44 0.47
0.42 0.51 0.55 0.50 0.34 0.33 0.29 0.22 0.19 0.19 0.16 0.11 0.08 0.08 0.08 0.10 0.10 0.13 0.12 0.11 0.10 0.11 0.13 0.17 0.19 0.21 0.23 0.27 0.30 0.36 0.41 0.42 0.46 0.50 0.51 0.48 0.50 0.47 0.43 0.42 0.45 0.51 0.52 0.55